Location: Dead Woman Crossing
(43.5369°N, 106.3228°W)
Time: 07:56:50
(UTC+00:00)

NANOSAT C BR1 - Pass Details

Date: 05 July 2022
Orbit: 584 x 599 km, 98.0° (Epoch: 09 August)

Event Time Altitude Azimuth Distance (km) Brightness Sun altitude
Rises 09:48:58 0° 5° (N) 2,852 ? -14.3°
Reaches altitude 10° 09:51:14 10° 358° (N) 1,947 ? -14.1°
Maximum altitude 09:55:11 40° 289° (WNW) 895 ? -13.6°
Enters shadow 09:57:34 21° 231° (SW) 1,377 ? -13.3°
